Location: *
(50.9167°S, 179.4000°W)
Time: 20:06:47
(UTC+00:00)

CZ-2C R/B - Pass Details

Date: 03 March 2024
Orbit: 666 x 779 km, 98.4° (Epoch: 16 April)

Event Time Altitude Azimuth Distance (km) Brightness Sun altitude
Exits shadow 14:32:42 67° 2° (N) 851 2.4 -24.9°
Maximum altitude 14:33:26 84° 285° (WNW) 796 2.4 -24.8°
Drops below altitude 10° 14:38:43 10° 196° (SSW) 2,373 5.4 -24.2°
Sets 14:41:04 0° 194° (SSW) 3,310 6.2 -24.0°
